Tesuque Pueblo, New Mexico
Current Conditions -  °F | °C
As of 3:53 PM on Friday 28 Nov 2014 (Local Time) from KSAF Reporting Station
Clear Clear  
Wind Chill: 58°   Ceiling: Unl
Heat Index: 58°   Visibility: 10mi
Dew Point: 15°   Wind: 6mph
Humidity: 19%   Direction: 230°SW
Pressure: 30.12"   Gusts: NA
Location:  35.7017°N, 105.921°W
Report Text: KSAF 282253Z 23005KT 10SM CLR 14/M09 A3012 RMK AO2 SLP167 T01441094
Loading
Personal Weather Stations






























Interactive Weather Map New forecast layout! Learn more

10-Day Weather Forecast

Advertisements
Track Severe Weather on mobile